SCP
0 0 0 0 0 0 0 0 0 0 0 0 0 1 1 1 1 2 2 2 2 2 2 2 2 3 4 5 5 6 6 8 9 9 8 7 6 6 6 7 7 5 3 3
0 0 0 0 0 0 0 0 0 0 0 0 0 1 1 1 1 2 2 2 2 2 2 2 3 3 4 5 5 6 7 8 9 10 9 8 7 6 6 5 4 3 3 2
0 0 0 0 0 0 0 0 0 0 0 0 0 1 1 2 1 1 2 2 2 2 2 3 3 3 4 4 4 5 6 8 10 10 10 8 7 5 4 3 3 2 2 2
0 0 0 0 0 0 0 0 0 0 0 0 0 1 1 2 1 1 1 2 2 2 3 3 3 3 4 4 3 4 6 8 10 10 10 8 6 4 3 3 3 3 2 2
0 0 0 0 0 0 0 0 0 0 0 0 0 0 1 2 2 1 1 2 3 4 4 3 3 3 4 4 4 4 5 7 9 10 9 8 6 4 3 4 4 4 4 4
0 0 0 0 0 0 0 0 0 0 0 0 0 1 1 2 2 2 2 4 5 6 5 5 4 4 5 4 4 4 4 7 8 9 8 7 6 5 4 5 7 7 7 6
0 0 0 0 0 0 0 0 0 0 0 0 1 1 1 1 1 2 4 5 7 8 7 7 6 6 5 4 4 4 5 6 7 7 7 6 6 5 6 8 10 10 9 8
0 0 0 0 0 0 0 0 0 0 0 0 1 1 1 1 1 3 4 6 7 7 7 7 6 6 6 5 5 5 6 7 7 7 6 7 7 8 9 11 12 11 8 7
0 0 0 0 0 0 0 0 0 0 0 0 1 1 1 1 1 2 4 4 5 5 5 5 5 6 8 8 8 7 8 8 8 8 9 10 10 10 10 10 9 7 5 4
0 0 0 0 0 0 0 0 0 0 0 0 0 1 1 1 1 2 3 3 3 4 4 4 6 9 11 12 11 11 11 11 11 11 11 11 10 9 7 6 5 4 3 2
0 0 0 0 0 0 0 0 0 0 0 0 0 1 1 1 1 2 2 2 3 3 4 6 9 11 12 11 11 12 13 13 12 11 9 7 6 5 4 3 3 3 2 2
0 0 0 0 0 0 0 0 0 0 0 0 0 1 1 1 2 2 2 2 3 3 3 5 7 8 7 7 7 8 10 9 8 6 5 3 2 2 2 3 3 3 2 2
0 0 0 0 0 1 0 0 0 0 0 0 0 1 1 2 2 2 2 3 3 3 3 4 4 5 4 4 4 4 4 4 3 3 2 2 2 2 2 2 3 3 2 2
0 0 0 0 0 0 0 0 0 1 1 1 0 1 1 2 2 2 3 3 4 3 3 4 5 5 5 5 4 4 3 3 2 2 2 1 1 1 2 2 2 2 2 2
1 1 0 0 0 0 0 0 0 1 0 0 1 1 1 2 2 2 3 4 4 3 2 3 4 5 6 6 6 5 4 3 3 2 1 1 2 1 1 1 2 2 2 2
1 1 1 1 1 0 0 1 1 1 1 1 1 1 2 2 2 2 3 3 3 2 2 2 3 3 4 4 5 5 4 4 3 2 2 2 2 1 1 1 1 1 1 1
1 1 1 1 1 1 1 1 1 1 1 1 1 1 2 2 2 2 3 2 2 1 1 1 2 2 2 2 3 3 3 3 2 2 2 2 2 2 1 1 1 1 1 1
1 1 1 1 1 1 1 1 1 1 1 1 1 2 2 2 2 2 2 1 1 1 1 1 1 1 1 2 2 2 2 2 2 2 1 2 2 2 2 1 1 1 1 1
1 1 1 1 1 1 1 1 1 1 1 1 1 2 2 2 2 1 1 1 1 1 1 1 1 1 2 2 2 2 2 1 1 1 1 1 1 1 1 1 1 1 1 1
1 1 1 1 1 0 1 1 1 1 1 1 1 2 2 1 1 1 1 1 1 1 1 1 2 2 2 2 2 2 1 1 1 1 1 1 1 1 1 1 2 2 2 2
1 1 1 1 1 1 1 1 1 1 1 1 1 1 1 2 1 1 1 1 1 1 1 2 2 2 2 2 2 1 1 1 1 1 1 1 1 1 1 1 2 2 2 2
1 1 1 1 1 1 1 1 1 1 1 1 1 1 1 1 1 1 1 1 1 1 1 2 2 2 2 1 1 1 1 1 1 1 1 1 1 1 1 1 1 2 2 2
1 1 1 2 1 1 2 2 1 1 1 1 1 1 1 1 1 1 1 1 1 1 1 1 1 2 2 1 1 1 1 1 1 1 1 1 1 1 1 1 1 1 2 2
1 1 2 2 2 2 2 1 1 1 1 1 1 1 1 1 1 0 1 1 1 1 1 1 1 1 1 1 1 1 1 2 2 2 2 1 1 1 1 1 1 1 1 2
1 1 2 2 2 2 1 1 1 1 1 1 0 0 0 1 1 1 1 1 1 1 1 1 1 1 1 1 1 1 2 2 2 2 2 2 1 1 1 1 1 1 1 1
1 1 2 2 2 2 2 1 1 1 1 0 0 0 0 0 1 1 1 1 1 1 1 1 1 1 1 1 1 1 2 2 2 2 2 2 1 1 1 1 1 1 1 1
Wind_Speed
8 11 11 9 10 11 10 11 11 8 4 7 9 8 5 5 6 6 7 7 7 6 6 5 6 5 5 5 5 5 5 5 4 3 3 3 3 3 3 3 3 4 4 4
10 13 10 9 9 11 12 13 11 7 3 6 8 9 7 6 7 6 7 7 7 6 6 6 6 5 5 5 5 5 5 5 5 3 2 2 3 3 2 2 3 4 3 4
13 6 6 9 10 11 12 12 11 9 6 8 9 11 8 6 6 6 7 7 7 7 6 6 6 6 6 5 5 5 5 5 4 4 3 2 2 3 3 3 3 4 4 4
11 9 8 10 10 11 10 8 10 10 10 8 8 10 6 6 6 7 7 7 7 7 6 6 6 6 6 5 5 5 5 4 4 5 4 4 4 3 3 3 2 3 4 4
8 8 10 11 9 9 7 5 8 10 11 11 9 10 5 5 7 7 7 7 7 6 6 6 6 6 5 5 4 5 5 4 4 4 4 4 4 3 2 3 3 4 4 5
10 8 8 9 7 6 6 6 8 10 11 11 8 10 7 4 5 4 6 6 6 6 6 6 6 6 5 4 4 4 4 4 4 4 4 4 4 4 3 3 3 3 3 3
11 11 10 8 9 8 9 8 7 8 8 7 4 8 5 2 3 4 3 5 5 5 6 6 6 5 5 5 4 4 4 4 4 4 4 4 4 4 4 3 3 3 3 3
10 10 10 9 11 9 9 11 8 8 8 6 5 6 2 1 2 3 3 3 4 5 5 5 5 5 5 5 4 4 4 4 4 4 3 3 4 4 3 3 3 3 3 3
7 7 6 6 8 9 10 10 9 11 11 10 6 4 4 3 4 4 3 3 4 4 4 4 4 5 4 4 4 3 3 3 3 3 3 4 4 4 3 3 4 3 3 4
8 8 6 6 7 7 8 7 6 8 8 10 8 7 4 4 4 4 4 4 3 3 4 4 4 4 4 4 3 3 2 2 2 2 3 2 3 3 3 3 3 4 4 4
8 9 6 7 9 8 8 8 8 8 8 9 9 4 2 2 3 3 4 3 3 3 3 4 3 4 4 3 3 2 2 1 1 1 1 2 2 3 3 4 4 4 4 4
6 7 8 8 5 6 9 9 9 8 8 9 10 5 3 1 1 2 3 2 2 3 3 4 4 4 3 3 3 2 1 1 1 1 1 1 2 2 4 4 4 4 4 5
4 5 8 7 8 9 9 9 10 10 9 9 11 4 4 2 2 3 3 2 3 3 3 4 4 3 3 3 2 1 1 0 0 0 1 1 2 3 3 4 4 4 4 5
5 7 10 10 7 5 8 9 10 11 10 11 11 9 6 5 4 4 3 3 3 4 3 3 3 3 3 2 2 1 0 0 0 1 2 2 2 3 3 4 4 4 4 5
6 9 11 12 11 10 11 11 11 13 13 13 10 10 7 4 3 3 3 4 4 4 4 4 3 3 2 2 1 1 1 0 0 1 2 2 2 2 3 3 4 4 4 5
5 8 9 11 10 11 13 12 12 13 12 12 12 10 4 2 2 3 4 5 5 5 4 4 4 3 3 2 1 1 1 0 1 1 2 2 2 2 3 3 3 4 5 5
7 7 8 10 9 10 12 10 11 11 10 10 10 6 2 3 4 4 4 6 6 5 4 4 4 3 2 2 1 1 1 1 0 1 2 2 2 3 3 4 4 4 4 5
8 8 7 8 8 12 4 2 6 8 8 7 6 3 3 2 2 2 4 5 5 5 5 4 3 3 2 2 1 1 1 1 0 1 2 2 2 3 4 4 4 4 4 5
8 8 7 7 10 9 5 3 4 6 5 3 3 2 3 3 3 4 4 4 4 5 4 4 3 3 3 2 1 1 1 0 1 2 3 3 3 4 4 4 5 5 5 5
7 8 8 8 9 9 2 2 1 5 6 2 1 2 4 5 5 3 4 4 5 4 4 4 4 3 3 2 1 2 1 1 2 3 3 4 4 4 5 5 5 5 5 6
8 8 10 10 9 6 3 1 3 7 1 3 0 2 3 3 3 2 4 4 5 5 4 4 4 3 3 2 2 2 1 2 3 3 4 4 4 5 5 5 5 5 6 6
7 7 8 8 9 3 4 1 2 4 4 1 0 1 1 0 1 3 5 5 5 5 5 5 4 3 2 2 2 2 2 2 3 3 4 4 5 6 5 5 5 5 6 6
4 4 4 4 2 3 1 1 2 2 1 1 0 1 2 2 3 4 5 5 5 5 5 4 4 3 2 2 2 2 2 3 3 3 4 4 5 5 5 6 6 5 5 5
2 2 4 3 2 1 1 1 0 1 1 1 1 2 3 3 4 5 5 5 5 5 5 5 4 3 2 2 2 2 3 3 3 4 4 4 5 5 5 5 5 5 5 5
5 4 5 5 3 1 1 2 1 0 1 1 2 2 2 4 4 4 4 4 4 4 4 4 3 3 2 2 2 3 3 3 4 4 4 5 5 5 5 5 4 5 4 4
3 4 5 4 3 4 2 3 2 1 1 1 2 2 2 2 3 3 3 3 3 3 3 3 3 3 2 2 2 3 3 3 4 4 5 4 5 4 5 5 4 2 3 2
Wind_Direction
203 230 230 231 239 262 270 269 269 266 260 258 259 261 254 216 223 219 214 206 202 201 192 190 192 190 181 179 187 189 190 180 189 196 211 210 213 221 223 219 204 219 227 222
216 231 240 245 246 254 257 261 263 258 234 261 267 263 250 233 234 233 224 215 210 206 190 185 190 192 194 191 196 198 199 191 196 192 218 230 239 233 233 229 206 217 219 224
233 247 234 241 241 247 251 260 268 265 246 240 257 255 238 221 229 224 222 222 215 211 203 192 195 202 203 201 203 204 202 201 198 190 201 205 210 230 220 218 211 212 219 222
240 243 237 240 242 250 256 259 265 260 255 254 250 275 250 222 219 223 221 217 214 206 206 200 201 207 206 204 202 200 196 198 192 197 206 214 225 234 239 238 220 214 217 222
231 229 234 242 249 253 268 273 260 257 258 263 248 264 258 216 233 225 221 219 215 211 209 203 203 205 205 203 199 190 189 192 191 203 204 215 232 238 234 234 220 228 215 220
248 243 248 249 246 240 242 241 241 243 248 253 254 265 272 249 256 246 218 217 212 211 209 205 201 199 202 201 195 185 182 187 191 203 215 223 233 243 244 242 231 231 224 222
231 228 221 231 232 212 229 248 247 240 236 254 232 254 270 279 269 266 234 211 205 206 204 203 203 198 198 195 190 181 177 185 194 204 218 229 236 241 240 243 236 245 244 232
236 229 208 215 235 240 231 245 265 280 281 278 230 250 269 227 249 249 233 214 201 204 207 207 204 199 194 190 188 188 183 187 194 202 211 220 231 238 238 238 255 252 259 256
248 240 191 208 231 243 235 237 264 274 275 276 258 244 223 207 220 218 213 208 206 211 208 209 200 189 183 183 179 182 184 198 208 214 216 217 227 246 249 238 242 249 251 251
256 258 221 200 212 220 252 241 240 258 277 275 262 252 250 210 219 215 218 221 221 211 201 198 184 172 172 171 162 164 176 191 213 224 228 229 240 243 250 258 254 254 253 256
248 251 230 211 223 228 214 221 241 258 269 281 283 284 39 262 254 234 227 232 229 208 188 177 169 160 154 156 157 154 160 172 194 219 233 252 258 254 250 247 243 242 246 248
234 257 252 234 227 253 240 242 239 255 262 260 279 287 87 148 267 249 251 221 188 184 174 165 156 153 155 153 151 150 164 181 192 201 226 252 259 260 259 256 252 249 251 250
205 238 248 220 205 208 228 233 239 248 263 264 269 272 117 163 224 232 231 195 165 164 166 158 149 150 146 142 144 147 177 173 192 239 265 267 265 261 263 268 266 262 258 257
238 240 254 268 275 240 233 235 233 241 255 265 267 278 260 239 232 225 210 184 165 160 161 157 145 141 136 136 137 130 94 52 253 291 288 283 278 278 276 276 271 266 262 259
239 248 251 264 271 260 255 250 240 241 255 269 277 279 282 268 244 218 198 181 173 164 162 157 149 135 130 123 125 102 80 62 298 275 280 280 277 278 282 281 276 274 273 265
235 259 257 257 254 254 256 252 245 246 254 260 268 272 272 261 218 203 191 184 182 176 169 159 150 146 143 141 135 119 121 139 256 279 294 302 299 283 281 279 280 280 278 277
232 242 254 258 255 257 249 246 244 246 250 256 263 273 220 218 210 210 193 188 187 179 169 161 153 148 150 156 157 157 157 175 205 305 308 312 302 293 289 286 283 280 280 277
236 241 252 262 254 249 257 266 252 251 254 256 260 245 206 211 195 199 194 188 181 175 167 158 153 153 161 159 157 173 174 189 259 315 316 314 303 304 305 296 289 288 285 281
228 236 247 252 253 256 233 216 234 246 252 262 250 201 169 143 182 188 174 178 177 172 163 156 158 154 155 158 166 192 214 255 299 308 300 304 306 305 302 301 302 298 290 285
201 227 243 247 258 264 299 82 245 245 229 145 173 163 164 184 230 148 135 161 164 164 163 160 159 155 153 155 188 216 235 270 292 301 303 310 307 300 296 299 298 298 288 284
201 214 232 246 253 259 50 77 215 237 31 66 151 173 191 236 323 86 144 159 158 161 167 168 169 166 154 164 199 236 264 289 301 304 306 311 309 297 292 293 290 290 285 285
244 240 234 243 248 246 69 196 268 6 27 54 115 188 200 341 124 151 156 158 160 164 168 171 173 167 159 179 211 242 278 300 302 302 306 312 306 301 306 298 288 287 286 277
255 292 295 287 309 46 31 347 29 16 16 30 154 164 174 171 161 157 155 157 161 167 170 176 179 176 184 205 229 258 289 296 296 299 304 305 304 302 299 295 292 286 278 279
225 288 264 257 241 293 309 222 235 3 6 43 144 162 172 163 155 157 159 159 162 169 177 180 186 196 208 225 249 272 287 293 292 294 298 298 297 297 299 296 293 296 299 298
298 269 259 257 278 278 53 15 1 42 81 112 138 153 167 162 162 161 163 167 169 174 185 192 197 206 216 234 263 275 281 280 284 288 289 291 293 299 296 293 302 299 314 321
292 289 284 300 340 313 324 339 337 326 161 159 157 158 167 170 169 169 168 163 169 178 186 198 207 215 234 249 266 279 280 272 278 281 286 289 289 296 296 296 293 275 259 250